Location: Unspecified
(0.0000°N, 0.0000°E)
Time: 20:47:24
(UTC+00:00)

Explorer 7 - All Passes

Search period start: 14 July 2020 00:00
Search period end: 24 July 2020 00:00
Orbit: 485 x 679 km, 50.3° (Epoch: 14 July)

Date Brightness Start Highest point End Pass type
(mag) Time Alt. Az. Time Alt. Az. Time Alt. Az.
14 Jul - 02:21:54 10° S 02:25:15 30° SE 02:28:35 10° ENE night (unlit)
14 Jul - 04:04:23 10° WNW 04:05:32 11° NW 04:06:41 10° NW visible
14 Jul - 14:22:45 10° NNW 14:27:31 55° NE 14:32:18 10° SE daylight
14 Jul - 16:06:03 10° WSW 16:08:00 12° SW 16:09:57 10° SSW daylight
15 Jul - 02:26:14 10° SSW 02:30:00 75° SE 02:33:44 10° NE night (unlit)
15 Jul - 14:27:23 10° NW 14:32:14 74° SW 14:37:08 10° SSE daylight
16 Jul - 02:31:09 10° SW 02:34:44 43° NW 02:38:18 10° NNE night (unlit)
16 Jul - 12:53:18 10° N 12:56:33 18° NE 12:59:49 10° E daylight
16 Jul - 14:32:30 10° WNW 14:37:00 37° SW 14:41:30 10° SSE daylight
17 Jul - 00:56:34 10° S 00:59:13 18° SE 01:01:49 10° E night (unlit)
17 Jul - 02:36:45 10° W 02:39:29 19° NW 02:42:12 10° N night (unlit)
17 Jul - 12:56:58 10° NNW 13:01:18 34° NE 13:05:43 10° ESE daylight
17 Jul - 14:38:16 10° W 14:41:45 20° SW 14:45:17 10° S daylight
18 Jul - 01:00:24 10° SSW 01:04:00 39° SE 01:07:30 10° ENE night (unlit)
18 Jul - 13:01:16 10° NNW 13:06:02 68° NE 13:10:54 10° SE daylight
19 Jul - 01:04:55 10° SW 01:08:44 83° NW 01:12:28 10° NE night (unlit)
19 Jul - 11:29:14 10° NE 11:30:20 11° NE 11:31:26 10° ENE daylight
19 Jul - 13:06:02 10° NW 13:10:46 60° SW 13:15:37 10° SSE daylight
19 Jul - 23:32:13 10° SE 23:33:07 11° SE 23:34:02 10° ESE night (unlit)
20 Jul - 01:10:00 10° WSW 01:13:28 33° NW 01:16:52 10° NNE night (unlit)
20 Jul - 11:31:32 10° N 11:35:06 21° NE 11:38:45 10° ESE daylight
20 Jul - 13:11:19 10° WNW 13:15:32 30° SW 13:19:50 10° S daylight
20 Jul - 23:34:49 10° S 23:37:57 23° SE 23:40:59 10° ENE night (unlit)
21 Jul - 01:15:55 10° W 01:18:12 15° NW 01:20:29 10° NNW night (unlit)
21 Jul - 11:35:25 10° NNW 11:39:50 41° NE 11:44:25 10° ESE daylight
21 Jul - 13:17:23 10° W 13:20:20 16° SW 13:23:19 10° SSW daylight
21 Jul - 23:38:54 10° SSW 23:42:43 52° SE 23:46:24 10° NE night (unlit)
22 Jul - 11:39:51 10° NW 11:44:34 83° NE 11:49:27 10° SE daylight
22 Jul - 23:43:35 10° SW 23:47:28 63° NW 23:51:11 10° NNE night (unlit)
23 Jul - 10:06:49 10° NNE 10:08:55 13° NE 10:11:03 10° E daylight
23 Jul - 11:44:46 10° NW 11:49:18 48° SW 11:54:01 10° SSE daylight
23 Jul - 22:09:41 10° SSE 22:11:51 14° SE 22:13:57 10° E night (unlit)
23 Jul - 23:48:51 10° WSW 23:52:11 27° NW 23:55:24 10° N night (unlit)
